Auburn, IN

11:38 AM EST on December 12, 2019 (GMT -0500)
Auburn

Weather History for KGWB - August, 2019

Change the Weather History Date:

Wednesday, August 28, 2019

  Actual Average (KFWA) Record (KFWA)
Temperature  
Mean Temperature 66 °F -  
Max Temperature 73 °F 81 °F 95 °F (1948)
Min Temperature 59 °F 61 °F 42 °F (1986)
Cooling Degree Days 1    
Growing Degree Days 16 (Base 50)    
Moisture  
Dew Point 55 °F    
Average Humidity 70    
Maximum Humidity 94    
Minimum Humidity 50    
Precipitation  
Precipitation 0.00 in - - ()
Sea Level Pressure  
Sea Level Pressure 29.94 in    
Wind  
Wind Speed 5 mph (WSW)    
Max Wind Speed 15 mph    
Max Gust Speed 26 mph    
Visibility 10 miles    
Events      
Averages and records for this station are not official NWS values.
T = Trace of Precipitation, MM = Missing Value Source: NWS Daily Summary

Daily Weather History Graph

Daily Weather History Graph

Search for Another Location

Airport or City:

Astronomy

Aug. 28, 2019 Rise Set
Actual Time 7:02 AM EDT 8:19 PM EDT
Civil Twilight 6:33 AM EDT 8:48 PM EDT
Nautical Twilight 5:59 AM EDT 9:22 PM EDT
Astronomical Twilight 5:23 AM EDT 9:58 PM EDT
Moon 4:31 AM EDT (8/28) 7:32 PM EDT (8/28)
Length of Visible Light 14h 14m
Length of Day
13h 17m
Waning Crescent, 5% of the Moon is Illuminated
Aug 28
Waning Crescent
Aug 30
New
Sep 5
First Quarter
Sep 14
Full
Sep 21
Last Quarter

Hourly Weather History & Observations

Time (EDT) Temp. Dew Point Humidity Pressure Visibility Wind Dir Wind Speed Gust Speed Precip Events Conditions
12:15 AM 66.2 °F 60.8 °F 83% 29.91 in 10.0 mi West 3.5 mph - N/A   Clear
12:35 AM 66.2 °F 60.8 °F 83% 29.91 in 10.0 mi WSW 3.5 mph - N/A   Clear
12:55 AM 66.2 °F 60.8 °F 83% 29.91 in 10.0 mi WSW 3.5 mph - N/A   Clear
1:15 AM 66.2 °F 59.0 °F 78% 29.91 in 10.0 mi WSW 3.5 mph - N/A   Clear
1:35 AM 64.4 °F 59.0 °F 83% 29.91 in 10.0 mi Calm Calm - N/A   Clear
1:55 AM 64.4 °F 59.0 °F 83% 29.91 in 10.0 mi SW 3.5 mph - N/A   Clear
2:15 AM 62.6 °F 59.0 °F 88% 29.90 in 10.0 mi Calm Calm - N/A   Clear
2:35 AM 62.6 °F 59.0 °F 88% 29.91 in 10.0 mi SSW 3.5 mph - N/A   Clear
2:55 AM 62.6 °F 59.0 °F 88% 29.90 in 10.0 mi SSW 4.6 mph - N/A   Clear
3:15 AM 62.6 °F 59.0 °F 88% 29.90 in 10.0 mi SSW 4.6 mph - N/A   Clear
3:35 AM 62.6 °F 59.0 °F 88% 29.90 in 10.0 mi SSW 4.6 mph - N/A   Clear
3:55 AM 60.8 °F 59.0 °F 94% 29.90 in 10.0 mi SW 3.5 mph - N/A   Clear
4:15 AM 60.8 °F 59.0 °F 94% 29.90 in 10.0 mi Calm Calm - N/A   Clear
4:35 AM 60.8 °F 59.0 °F 94% 29.90 in 10.0 mi SW 3.5 mph - N/A   Clear
4:55 AM 59.0 °F 57.2 °F 94% 29.90 in 10.0 mi Calm Calm - N/A   Clear
5:42 AM 59.0 °F 57.2 °F 94% 29.90 in 10.0 mi SW 3.5 mph - N/A   Clear
6:22 AM 59.0 °F 55.4 °F 88% 29.92 in 10.0 mi SW 3.5 mph - N/A   Clear
6:42 AM 59.0 °F 55.4 °F 88% 29.92 in 10.0 mi SSW 3.5 mph - N/A   Clear
6:55 AM 59.0 °F 55.4 °F 88% 29.93 in 10.0 mi SW 3.5 mph - N/A   Clear
7:15 AM 59.0 °F 55.4 °F 88% 29.93 in 10.0 mi WSW 3.5 mph - N/A   Clear
7:35 AM 59.0 °F 55.4 °F 88% 29.93 in 10.0 mi WSW 3.5 mph - N/A   Clear
7:55 AM 59.0 °F 55.4 °F 88% 29.93 in 10.0 mi SW 3.5 mph - N/A   Clear
8:15 AM 59.0 °F 55.4 °F 88% 29.94 in 10.0 mi SW 4.6 mph - N/A   Clear
8:35 AM 60.8 °F 55.4 °F 82% 29.95 in 10.0 mi WSW 4.6 mph - N/A   Clear
8:55 AM 62.6 °F 55.4 °F 77% 29.95 in 10.0 mi WSW 5.8 mph - N/A   Clear
9:15 AM 62.6 °F 55.4 °F 77% 29.95 in 10.0 mi WSW 5.8 mph - N/A   Clear
9:35 AM 64.4 °F 55.4 °F 73% 29.95 in 10.0 mi WSW 5.8 mph - N/A   Clear
9:55 AM 64.4 °F 57.2 °F 77% 29.96 in 10.0 mi WSW 5.8 mph - N/A   Clear
10:15 AM 68.0 °F 55.4 °F 64% 29.96 in 10.0 mi WSW 5.8 mph - N/A   Clear
10:35 AM 68.0 °F 53.6 °F 60% 29.96 in 10.0 mi West 8.1 mph - N/A   Clear
10:55 AM 68.0 °F 55.4 °F 64% 29.97 in 10.0 mi WSW 5.8 mph 9.2 mph N/A   Clear
11:15 AM 69.8 °F 53.6 °F 56% 29.97 in 10.0 mi WSW 12.7 mph 18.4 mph N/A   Clear
11:35 AM 69.8 °F 53.6 °F 56% 29.97 in 10.0 mi West 11.5 mph 17.3 mph N/A   Clear
11:55 AM 69.8 °F 53.6 °F 56% 29.97 in 10.0 mi West 11.5 mph 18.4 mph N/A   Clear
12:15 PM 69.8 °F 53.6 °F 56% 29.97 in 10.0 mi West 12.7 mph 23.0 mph N/A   Clear
12:35 PM 69.8 °F 55.4 °F 60% 29.97 in 10.0 mi West 11.5 mph 20.7 mph N/A   Clear
12:55 PM 71.6 °F 53.6 °F 53% 29.96 in 10.0 mi West 11.5 mph 26.5 mph N/A   Clear
1:15 PM 71.6 °F 53.6 °F 53% 29.96 in 10.0 mi WSW 10.4 mph 19.6 mph N/A   Clear
1:35 PM 71.6 °F 53.6 °F 53% 29.96 in 10.0 mi West 15.0 mph 19.6 mph N/A   Scattered Clouds
1:55 PM 71.6 °F 53.6 °F 53% 29.96 in 10.0 mi West 12.7 mph 24.2 mph N/A   Scattered Clouds
2:15 PM 71.6 °F 53.6 °F 53% 29.95 in 10.0 mi West 12.7 mph 20.7 mph N/A   Scattered Clouds
2:35 PM 73.4 °F 55.4 °F 53% 29.95 in 10.0 mi West 13.8 mph 23.0 mph N/A   Clear
2:55 PM 73.4 °F 55.4 °F 53% 29.95 in 10.0 mi WSW 10.4 mph 20.7 mph N/A   Clear
3:15 PM 73.4 °F 53.6 °F 50% 29.95 in 10.0 mi West 12.7 mph 17.3 mph N/A   Scattered Clouds
3:35 PM 73.4 °F 53.6 °F 50% 29.95 in 10.0 mi West 15.0 mph 19.6 mph N/A   Scattered Clouds
3:55 PM 73.4 °F 53.6 °F 50% 29.94 in 10.0 mi West 13.8 mph 23.0 mph N/A   Scattered Clouds
4:15 PM 73.4 °F 53.6 °F 50% 29.94 in 10.0 mi WSW 12.7 mph 20.7 mph N/A   Scattered Clouds
4:35 PM 73.4 °F 53.6 °F 50% 29.95 in 10.0 mi West 11.5 mph 19.6 mph N/A   Scattered Clouds
4:55 PM 73.4 °F 53.6 °F 50% 29.94 in 10.0 mi WSW 15.0 mph 24.2 mph N/A   Clear
5:15 PM 73.4 °F 53.6 °F 50% 29.94 in 10.0 mi WSW 12.7 mph 18.4 mph N/A   Scattered Clouds
5:35 PM 73.4 °F 53.6 °F 50% 29.94 in 10.0 mi WSW 11.5 mph 20.7 mph N/A   Scattered Clouds
5:55 PM 71.6 °F 53.6 °F 53% 29.95 in 10.0 mi West 11.5 mph 19.6 mph N/A   Clear
6:15 PM 71.6 °F 53.6 °F 53% 29.95 in 10.0 mi West 8.1 mph 17.3 mph N/A   Scattered Clouds
6:35 PM 71.6 °F 53.6 °F 53% 29.95 in 10.0 mi West 10.4 mph - N/A   Scattered Clouds
6:55 PM 71.6 °F 53.6 °F 53% 29.95 in 10.0 mi West 6.9 mph 19.6 mph N/A   Scattered Clouds
7:15 PM 71.6 °F 53.6 °F 53% 29.95 in 10.0 mi WSW 5.8 mph - N/A   Clear
7:35 PM 69.8 °F 53.6 °F 56% 29.95 in 10.0 mi WSW 3.5 mph - N/A   Clear
7:55 PM 69.8 °F 53.6 °F 56% 29.95 in 7.0 mi WSW 4.6 mph - N/A   Clear
8:15 PM 68.0 °F 53.6 °F 60% 29.96 in 10.0 mi WSW 4.6 mph - N/A   Clear
8:35 PM 68.0 °F 53.6 °F 60% 29.96 in 10.0 mi SW 4.6 mph - N/A   Clear
8:55 PM 66.2 °F 53.6 °F 64% 29.97 in 10.0 mi SW 3.5 mph - N/A   Clear
9:15 PM 64.4 °F 53.6 °F 68% 29.97 in 10.0 mi SW 3.5 mph - N/A   Scattered Clouds
9:35 PM 64.4 °F 53.6 °F 68% 29.98 in 10.0 mi SW 4.6 mph - N/A   Clear
9:55 PM 64.4 °F 53.6 °F 68% 29.98 in 10.0 mi SW 5.8 mph - N/A   Scattered Clouds
10:15 PM 64.4 °F 53.6 °F 68% 29.98 in 10.0 mi Calm Calm - N/A   Scattered Clouds
10:35 PM 60.8 °F 55.4 °F 82% 29.99 in 10.0 mi Calm Calm - N/A   Scattered Clouds
10:55 PM 60.8 °F 55.4 °F 82% 29.99 in 10.0 mi Calm Calm - N/A   Scattered Clouds
11:15 PM 59.0 °F 55.4 °F 88% 29.99 in 10.0 mi Calm Calm - N/A   Clear
11:35 PM 59.0 °F 55.4 °F 88% 29.99 in 10.0 mi Calm Calm - N/A   Scattered Clouds
11:55 PM 59.0 °F 55.4 °F 88% 30.00 in 10.0 mi Calm Calm - N/A   Scattered Clouds